TECHSAT 1B (GO-32)

Last updated on Wed Sep 17 2025 00:02:30 GMT+0000 (Coordinated Universal Time)

1 25397U 98043D 25259.39041171 .00000087 00000+0 57973-4 0 9998 2 25397 98.9819 240.6212 0000424 336.9204 23.1955 14.24338884412351
UTC large
Height (km)
Speed (km/s)
/
Latitude / Longitude
Inclination (degrees)
Orbital Period (minutes)
Azimuth
Elevation
Range (km)
Doppler Factor

Next 0 passes for location: London (51.5072 / 0.1276)

Sorry there are no passes over London.